Regional Weather Roundup
Issued by NWS

Home | Current Version | Previous Version | Text Only | Print | Product List | Glossary On
Versions: 1 2 3 4 5 6 7 8 9 10 11 12 13 14 15 16 17 18 19 20 21 22 23 24 25 26 27 28 29 30 31 32 33 34 35 36 37 38 39 40 41 42 43 44 45 46 47 48 49 50
000
ASUS44 KLUB 261210
RWRTX
WEST TEXAS WEATHER ROUNDUP
NATIONAL WEATHER SERVICE LUBBOCK TX
700 AM CDT THU MAY 26 2016

NOTE: "FAIR" INDICATES FEW OR NO CLOUDS BELOW 12,000 FEET WITH NO
SIGNIFICANT WEATHER AND/OR OBSTRUCTIONS TO VISIBILITY.

TXZ004-006>008-010-012-014-016-OKZ002-261300-
TEXAS PANHANDLE/OKLAHOMA PANHANDLE

CITY           SKY/WX    TMP DP  RH WIND       PRES   REMARKS
AMARILLO       CLEAR     61  54  77 SW12      29.88S
BORGER         CLEAR     65  50  58 VRB3      29.84R
CANADIAN       PTCLDY    58  55  87 CALM      29.83R
DALHART        CLEAR     49  37  63 CALM      29.87F
DUMAS          CLEAR     54  34  46 SW10      29.86S
GUYMON         MOCLDY    59  34  39 W10       29.82F
HEREFORD       CLEAR     59  51  73 CALM      29.90S
PAMPA          CLEAR     62  56  80 S12       29.86R
PERRYTON       CLEAR     55  47  72 SW3       29.81F
$$

TXZ026-029-035-045-048-261300-
SOUTHERN PANHANDLE/SOUTH PLAINS/ROLLING PLAINS

CITY           SKY/WX    TMP DP  RH WIND       PRES   REMARKS
CHILDRESS      PTCLDY    73  71  93 SE9       29.83R FOG
SEMINOLE       CLEAR     67  63  86 SW8       29.91R
LUBBOCK        MOCLDY    71  64  78 S18       29.87R
PLAINVIEW      PTCLDY    59  55  86 S6        29.86S FOG
SNYDER           N/A     71  58  64 S5        29.88F
$$

TXZ052-054-060>062-072-078-127-140-154-169-261300-
PERMIAN BASIN/CONCHO VALLEY/BIG COUNTRY/EDWARDS PLATEAU

CITY           SKY/WX    TMP DP  RH WIND       PRES   REMARKS
ABILENE        CLOUDY    75  58  55 SW7       29.87R
BIG SPRING     CLOUDY    70  63  78 SE8       29.90R
BROWNWOOD      CLOUDY    72  66  83 SE13      29.88F
JUNCTION       CLOUDY    77  71  82 CALM      29.92R
MIDLAND        MOCLDY    75  65  70 S10       29.88S
ODESSA         PTCLDY    74  66  76 S12       29.89S
SAN ANGELO     CLOUDY    68  65  90 SE6       29.89R
SONORA         DRIZZLE   75  72  88 SE9       29.96R
SWEETWATER     MOCLDY    74  58  55 S12       29.91S
WINK           CLEAR     67  65  93 MISG      29.87S
$$

TXZ055-058-074-075-080-082-261300-
FAR WEST/SOUTHWEST MOUNTAINS/TRANS PECOS

CITY           SKY/WX    TMP DP  RH WIND       PRES   REMARKS
ALPINE         CLEAR     67  45  43 S9        30.08F
DRYDEN           N/A     76  61  59 SW8       29.87S
EL PASO        CLEAR     71  27  19 W17G29    29.96R
FORT STOCKTON  CLEAR     72  52  49 SW10      29.91R
MARFA          CLEAR     58  44  60 S8        30.06S
PECOS          CLEAR     64  52  65 CALM      29.89R
PRESIDIO       FAIR      76  46  35 NE5       29.94R
$$

TXZ014-016-019-021>030-083-261300
TEXAS TECH WEST TEXAS MESONET/TEXAS PANHANDLE/NORTHERN SOUTH PLAINS

CITY           SKY/WX    TMP DP  RH WIND       PRES   REMARKS
ABERNATHY 5ENE   N/A     67  64  89 S12       29.91R
AMARILLO 9NNE    N/A     65  54  65 S12       29.87R
AMARILLO 7SSE    N/A     64  56  76 SW7       29.90S
AMHERST 1NE      N/A     63  57  82 S7        29.90R
BOOTLEG 11WNW    N/A     51  34  52 SW14      29.95R
CANADIAN 6E      N/A     66  63  90 SE6       29.83R
CAPROCK CYN SP   N/A     70  65  85 S10       29.85S
CHILDRESS 2NNE   N/A     71  69  91 SE8       29.84S
CLARENDON 2WSW   N/A     66  62  89 SE7       29.87S
CLAUDE 12SW      N/A     70  60  71 S6        29.89R
DIMMITT 2NE      N/A     60  52  75 SW7       29.90F
FLOYDADA 2NNE    N/A     69  63  81 S14       29.88S
FRIONA 2NE       N/A     61  51  70 SW13      29.91F
GOODLETT 3W      N/A     75  70  85 SE7       29.83S
HART 3N          N/A     58  53  85 W5        29.90S
HEREFORD 2NW     N/A     57  46  66 SW7       29.92S
MCLEAN 1E        N/A     65  63  93 SE12      29.87R
MEMPHIS 1NE      N/A     67  66  95 E1        29.86R
MULESHOE 2SSW    N/A     61  54  78 W9        29.90F
OLTON 6S         N/A     59  55  88 S8        29.90R
PALO DURO SP     N/A     67  57  69 SW10      29.89S
PAMPA 2E         N/A     60  54  82 SE9       29.88S
PLAINVIEW 1S     N/A     63  61  93 S5        29.90R
SILVERTON 7ESE   N/A     68  63  85 SW12      29.86R
TULIA 2ENE       N/A     61  57  86 SW8       29.89S
TURKEY 2WSW      N/A     70  67  90 SE6       29.85S
UMBARGER 3NNE    N/A     60  51  74 SW10      29.90F
$$

TXZ033>036-039>041-045>048-261300
TEXAS TECH WEST TEXAS MESONET/SOUTH PLAINS

CITY           SKY/WX    TMP DP  RH WIND       PRES   REMARKS
AIKEN 3WSW       N/A     66  64  91 S9        29.90R
ANDREWS 2NE      N/A     70  65  85 S8        29.92S
ANTON 6SSW       N/A     68  61  80 S12       29.89R
BROWNFIELD 2S    N/A     66  58  75 S12       29.91R
DENVR CTY 7WNW   N/A     62  55  77 SW9       29.92S
GAIL 2ESE        N/A     70  58  66 SE8       29.88R
LAMESA 2SE       N/A     68  61  78 S8        29.90R
LEVELLAND 4S     N/A     67  59  76 S13       29.90S
LUBBOCK 3WNW     N/A     71  61  72 S15G21    29.89S
MORTON 1ENE      N/A     61  56  83 W7        29.91R
ODONNELL 1N      N/A     69  59  71 S10       29.90R
PLAINS 3N        N/A     64  60  86 SW9       29.92R
RALLS 1SE        N/A     71  61  69 S21G26    29.90R
REESE CENTER     N/A     67  62  83 S13       29.90R
SEAGRAVES 1SW    N/A     66  60  81 S9        29.91R
SEMINOLE 2NNE    N/A     68  62  81 SW9       29.91R
SLATON 2NE       N/A     70  60  72 S17       29.89R
SNYDER 3E        N/A     66  63  90 S2        29.88F
SUNDOWN 8SW      N/A     64  60  88 SW9       29.90S
TAHOKA 3NNE      N/A     68  61  77 S9        29.90S
WOLFFORTH 6SSW   N/A     69  59  70 S13       29.90R
$$

TXZ031-032-036>038-042>044-261300-
TEXAS TECH WEST TEXAS MESONET/ROLLING PLAINS

CITY           SKY/WX    TMP DP  RH WIND       PRES   REMARKS
ASPERMONT 3NE    N/A     75  66  73 SE12G18   29.86S
FLUVANNA 3WNW    N/A     69  58  67 SE17      29.88S
GUTHRIE 10WSW    N/A     72  69  89 S7        29.82F
HASKELL 1NW      N/A     75  68  79 SW10      29.87R
JAYTON 1SSE      N/A     76  55  46 S8        29.83S
KNOX CITY 3NW    N/A     76  70  81 S15G21    29.85R
LK A HENRY 1NW   N/A     75  56  51 S10       29.86R
NORTHFIELD 1S    N/A     69  69  97 NE6       29.83F
ODELL 4ENE       N/A     75  74  96 SE13      29.85R
PADUCAH 10SW     N/A     72  70  92 S12       29.83S
POST 1NE         N/A     72  60  66 S8        29.87R
RRING SPRGS 3N   N/A     72  67  84 S14       29.85S
SEYMOUR 3NW      N/A     75  72  88 SE10      29.84S
SPUR 1W          N/A     71  65  79 S8        29.85R
WEINERT 2NNE     N/A     76  72  88 SW10      29.86R
WHITE RVR 6NE    N/A     72  61  70 S10       29.88R
$$

TXZ052-054-060>062-072-078-127-140-154-169-261300-
TEXAS TECH WEST TEXAS MESONET/PERMIAN BASIN/
CONCHO VALLEY/BIG COUNTRY/EDWARDS PLATEAU

CITY           SKY/WX    TMP DP  RH WIND       PRES   REMARKS
COYANOSA 2N      N/A     72  48  42 S9        29.89R
JUNCTION 1SSW    N/A     77  73  87 S2        29.94R
MERTZON 3NNE     N/A     65  64  95 N1        29.93R
SAN ANGELO 7NW   N/A     69  63  82 E7        29.91R
STRLNG CT 4WSW   N/A     70  58  66 SE8       29.91R
ST LAWRNCE 5SW   N/A     70  64  82 SE9       29.89F
SWEETWATR 11SW   N/A     73  57  55 SE13      29.92R
WALL 1E          N/A     68  62  82 SE9       29.92R
$$

TXZ055-058-074-075-080-082-261300-
TEXAS TECH WEST TEXAS MESONET/FAR WEST/SOUTHWEST MOUNTAINS/TRANS PECOS

CITY           SKY/WX    TMP DP  RH WIND       PRES   REMARKS
PRSMN GAP BBNP   N/A     74  49  41 SW6       29.94S
GUADLPE MTN NP   N/A     67  17  15 W18       30.05R
$$




USA.gov is the U.S. government's official web portal to all federal, state and local government web resources and services.